When you browse on this site, cookies collect data to enhance your experience and personalize the content and advertising you see.
Visit our Privacy Policy to learn more. By continuing to use the site, you agree to this use of cookies and data.
  • In Belgium
  • List of Countries
  • For 7 days
  • Water Temperature
  • Satellite Maps
  • Weather Map
  • Weather Widgets
  • user-avatar
    Login

    Hourly Weather Sobol

    Today, 19 February, Tuesday

    Time Temperature Precipitation Wind Pressure Humidity
    00:00 +2°C° 0 mm 3 mps 746 mmHg 92%
    01:00 +2°C° 0 mm 3 mps 746 mmHg 93%
    02:00 +2°C° 0 mm 3 mps 746 mmHg 93%
    03:00 +1°C° 0 mm 3 mps 745 mmHg 93%
    04:00 +1°C° 0 mm 3 mps 745 mmHg 93%
    05:00 +1°C° 0 mm 3 mps 745 mmHg 93%
    06:00 +1°C° 0 mm 3 mps 745 mmHg 92%
    07:00 0°C° 0 mm 3 mps 744 mmHg 91%
    08:00 0°C° 0 mm 3 mps 744 mmHg 90%
    09:00 +2°C° 0 mm 3 mps 744 mmHg 83%
    10:00 +3°C° 0 mm 3 mps 744 mmHg 77%
    11:00 +5°C° 0 mm 4 mps 744 mmHg 70%
    12:00 +6°C° 0 mm 4 mps 743 mmHg 66%
    13:00 +7°C° 0 mm 4 mps 743 mmHg 63%
    14:00 +8°C° 0 mm 4 mps 743 mmHg 59%
    15:00 +8°C° 0 mm 4 mps 742 mmHg 61%
    16:00 +9°C° 0 mm 3 mps 742 mmHg 63%
    17:00 +9°C° 0 mm 3 mps 742 mmHg 65%
    18:00 +8°C° 0 mm 3 mps 742 mmHg 70%
    19:00 +5°C° 0 mm 4 mps 741 mmHg 75%
    20:00 +4°C° 0 mm 4 mps 741 mmHg 79%
    21:00 +3°C° 0 mm 5 mps 741 mmHg 81%
    22:00 +3°C° 0 mm 5 mps 741 mmHg 82%
    23:00 +3°C° 0 mm 5 mps 741 mmHg 83%

    Tomorrow, 20 February, Wednesday

    Time Temperature Precipitation Wind Pressure Humidity
    00:00 +2°C° 0 mm 5 mps 741 mmHg 83%
    01:00 +2°C° 0 mm 5 mps 741 mmHg 84%
    02:00 +2°C° 0 mm 5 mps 741 mmHg 85%
    03:00 +2°C° 0.3 mm 5 mps 741 mmHg 86%
    04:00 +2°C° 0.3 mm 5 mps 741 mmHg 88%
    05:00 +2°C° 0.3 mm 5 mps 741 mmHg 89%
    06:00 +2°C° 0 mm 5 mps 741 mmHg 90%
    07:00 +2°C° 0 mm 5 mps 741 mmHg 91%
    08:00 +1°C° 0 mm 5 mps 742 mmHg 92%
    09:00 +2°C° 0.1 mm 5 mps 742 mmHg 88%
    10:00 +2°C° 0.1 mm 6 mps 742 mmHg 85%
    11:00 +3°C° 0.1 mm 6 mps 743 mmHg 82%
    12:00 +3°C° 0.1 mm 6 mps 743 mmHg 77%
    13:00 +3°C° 0.1 mm 7 mps 743 mmHg 72%
    14:00 +4°C° 0.1 mm 7 mps 743 mmHg 67%
    15:00 +4°C° 0.1 mm 7 mps 743 mmHg 68%
    16:00 +3°C° 0.1 mm 7 mps 743 mmHg 68%
    17:00 +3°C° 0.1 mm 6 mps 743 mmHg 69%
    18:00 +3°C° 0 mm 6 mps 744 mmHg 72%
    19:00 +2°C° 0 mm 5 mps 744 mmHg 74%
    20:00 +1°C° 0 mm 5 mps 744 mmHg 77%
    21:00 +1°C° 0 mm 5 mps 745 mmHg 78%
    22:00 +2°C° 0 mm 5 mps 745 mmHg 78%
    23:00 +2°C° 0 mm 5 mps 745 mmHg 79%

    Day after tomorrow, 21 February, Thursday

    Time Temperature Precipitation Wind Pressure Humidity
    00:00 +2°C° 0 mm 5 mps 745 mmHg 79%
    01:00 +2°C° 0 mm 5 mps 745 mmHg 79%
    02:00 +2°C° 0 mm 5 mps 745 mmHg 80%
    03:00 +2°C° 0 mm 5 mps 745 mmHg 80%
    04:00 +2°C° 0 mm 5 mps 745 mmHg 80%
    05:00 +2°C° 0 mm 5 mps 745 mmHg 80%
    06:00 +2°C° 0 mm 5 mps 745 mmHg 84%
    07:00 +2°C° 0 mm 5 mps 745 mmHg 88%
    08:00 +2°C° 0 mm 5 mps 745 mmHg 91%
    09:00 +2°C° 0.1 mm 5 mps 745 mmHg 86%
    10:00 +3°C° 0.1 mm 6 mps 745 mmHg 82%
    11:00 +4°C° 0.1 mm 6 mps 745 mmHg 77%
    12:00 +4°C° 0.2 mm 6 mps 745 mmHg 78%
    13:00 +4°C° 0.2 mm 6 mps 745 mmHg 78%
    14:00 +4°C° 0.2 mm 6 mps 744 mmHg 78%
    15:00 +4°C° 0.2 mm 6 mps 744 mmHg 81%
    16:00 +4°C° 0.2 mm 6 mps 744 mmHg 83%
    17:00 +3°C° 0.2 mm 5 mps 743 mmHg 85%
    18:00 +3°C° 0.9 mm 5 mps 743 mmHg 87%
    19:00 +3°C° 0.9 mm 5 mps 743 mmHg 89%
    20:00 +3°C° 0.9 mm 5 mps 743 mmHg 91%
    21:00 +3°C° 1 mm 5 mps 743 mmHg 92%
    22:00 +3°C° 1 mm 5 mps 744 mmHg 93%
    23:00 +4°C° 1 mm 4 mps 744 mmHg 93%

    22 February, Friday

    Time Temperature Precipitation Wind Pressure Humidity
    00:00 +4°C° 0.4 mm 4 mps 744 mmHg 94%
    01:00 +4°C° 0.4 mm 4 mps 744 mmHg 94%
    02:00 +3°C° 0.4 mm 4 mps 745 mmHg 94%
    03:00 +1°C° 0.4 mm 5 mps 745 mmHg 91%
    04:00 -1°C° 0.4 mm 5 mps 746 mmHg 88%
    05:00 -3°C° 0.4 mm 6 mps 746 mmHg 85%
    06:00 -4°C° 0 mm 6 mps 748 mmHg 80%
    07:00 -4°C° 0 mm 7 mps 749 mmHg 75%
    08:00 -6°C° 0 mm 7 mps 750 mmHg 71%
    09:00 -6°C° 0 mm 7 mps 751 mmHg 68%
    10:00 -5°C° 0 mm 6 mps 752 mmHg 65%
    11:00 -4°C° 0 mm 6 mps 753 mmHg 62%
    12:00 -4°C° 0 mm 6 mps 754 mmHg 59%
    13:00 -4°C° 0 mm 6 mps 755 mmHg 57%
    14:00 -4°C° 0 mm 6 mps 755 mmHg 55%
    15:00 -4°C° 0 mm 6 mps 756 mmHg 53%
    16:00 -5°C° 0 mm 6 mps 756 mmHg 51%
    17:00 -5°C° 0 mm 6 mps 757 mmHg 50%
    18:00 -5°C° 0 mm 5 mps 757 mmHg 50%
    19:00 -6°C° 0 mm 5 mps 758 mmHg 50%
    20:00 -5°C° 0 mm 4 mps 759 mmHg 51%
    21:00 -5°C° 0 mm 4 mps 759 mmHg 50%
    22:00 -5°C° 0 mm 4 mps 760 mmHg 49%
    23:00 -5°C° 0 mm 4 mps 760 mmHg 48%

    23 February, Saturday

    Time Temperature Precipitation Wind Pressure Humidity
    00:00 -5°C° 0 mm 4 mps 760 mmHg 47%
    01:00 -5°C° 0 mm 3 mps 760 mmHg 45%
    02:00 -5°C° 0 mm 3 mps 761 mmHg 44%
    03:00 -5°C° 0 mm 3 mps 760 mmHg 45%
    04:00 -5°C° 0 mm 3 mps 760 mmHg 45%
    05:00 -4°C° 0 mm 2 mps 760 mmHg 46%
    06:00 -4°C° 0 mm 2 mps 760 mmHg 45%
    07:00 -4°C° 0 mm 2 mps 760 mmHg 44%
    08:00 -4°C° 0 mm 2 mps 760 mmHg 44%
    09:00 -4°C° 0 mm 3 mps 760 mmHg 39%
    10:00 -2°C° 0 mm 3 mps 760 mmHg 34%
    11:00 -1°C° 0 mm 3 mps 759 mmHg 30%
    12:00 -1°C° 0 mm 3 mps 759 mmHg 32%
    13:00 -1°C° 0 mm 3 mps 758 mmHg 34%
    14:00 -2°C° 0 mm 4 mps 758 mmHg 36%
    15:00 -3°C° 0 mm 4 mps 757 mmHg 43%
    16:00 -3°C° 0 mm 4 mps 757 mmHg 49%
    17:00 -3°C° 0 mm 4 mps 756 mmHg 55%
    18:00 -3°C° 0.1 mm 4 mps 756 mmHg 55%
    19:00 -2°C° 0.1 mm 3 mps 756 mmHg 55%
    20:00 -2°C° 0.1 mm 3 mps 755 mmHg 55%
    21:00 -2°C° 0 mm 3 mps 755 mmHg 54%
    22:00 -2°C° 0 mm 2 mps 755 mmHg 53%
    23:00 -2°C° 0 mm 2 mps 755 mmHg 52%

    24 February, Sunday

    Time Temperature Precipitation Wind Pressure Humidity
    00:00 -2°C° 0 mm 2 mps 755 mmHg 56%
    01:00 -2°C° 0 mm 2 mps 755 mmHg 60%
    02:00 -3°C° 0 mm 2 mps 755 mmHg 64%
    03:00 -3°C° 0 mm 2 mps 755 mmHg 68%
    04:00 -3°C° 0 mm 2 mps 755 mmHg 71%
    05:00 -1°C° 0 mm 1 mps 754 mmHg 74%
    06:00 -3°C° 0 mm 2 mps 754 mmHg 76%
    07:00 -3°C° 0 mm 2 mps 754 mmHg 78%
    08:00 -2°C° 0 mm 2 mps 754 mmHg 80%
    09:00 -1°C° 0 mm 2 mps 754 mmHg 78%
    10:00 +1°C° 0 mm 2 mps 754 mmHg 77%
    11:00 +1°C° 0 mm 3 mps 755 mmHg 76%
    12:00 +1°C° 0 mm 3 mps 754 mmHg 80%
    13:00 +2°C° 0 mm 3 mps 754 mmHg 83%
    14:00 +2°C° 0 mm 3 mps 753 mmHg 87%
    15:00 +2°C° 0 mm 3 mps 753 mmHg 89%
    16:00 +2°C° 0 mm 3 mps 752 mmHg 91%
    17:00 +2°C° 0 mm 3 mps 751 mmHg 92%
    18:00 +1°C° 0 mm 3 mps 751 mmHg 93%
    19:00 +1°C° 0 mm 3 mps 750 mmHg 94%
    20:00 +1°C° 0 mm 3 mps 750 mmHg 95%
    21:00 0°C° 0 mm 3 mps 749 mmHg 95%
    22:00 -1°C° 0 mm 4 mps 749 mmHg 95%
    23:00 -1°C° 0 mm 4 mps 748 mmHg 95%
    Show more